When you browse on this site, cookies collect data to enhance your experience and personalize the content and advertising you see.
Visit our Privacy Policy to learn more. By continuing to use the site, you agree to this use of cookies and data.
  • In Austria
  • List of Countries
  • For 7 days
  • Water Temperature
  • Weather Map
  • News
  • Weather Widgets
  • user-avatar
    Login

    Hourly Weather Singuilucan

    Today, 17 September, Tuesday

    Time Temperature Precipitation Wind Pressure Humidity
    00:00 +12°C° 0 mm 1 mps 555 mmHg 95%
    01:00 +11°C° 0 mm 1 mps 555 mmHg 95%
    02:00 +11°C° 0 mm 1 mps 554 mmHg 95%
    03:00 +11°C° 0 mm 1 mps 554 mmHg 94%
    04:00 +11°C° 0 mm 1 mps 555 mmHg 94%
    05:00 +11°C° 0 mm 1 mps 555 mmHg 95%
    06:00 +12°C° 0 mm 1 mps 556 mmHg 90%
    07:00 +13°C° 0 mm 1 mps 557 mmHg 86%
    08:00 +15°C° 0 mm 1 mps 558 mmHg 81%
    09:00 +16°C° 0.1 mm 2 mps 558 mmHg 74%
    10:00 +18°C° 0.1 mm 2 mps 559 mmHg 68%
    11:00 +19°C° 0.1 mm 2 mps 559 mmHg 61%
    12:00 +19°C° 0.2 mm 3 mps 559 mmHg 62%
    13:00 +19°C° 0.2 mm 3 mps 558 mmHg 62%
    14:00 +20°C° 0.2 mm 3 mps 558 mmHg 63%
    15:00 +19°C° 0.4 mm 3 mps 557 mmHg 69%
    16:00 +17°C° 0.4 mm 3 mps 556 mmHg 76%
    17:00 +16°C° 0.4 mm 3 mps 556 mmHg 82%
    18:00 +15°C° 0.2 mm 2 mps 556 mmHg 86%
    19:00 +14°C° 0.2 mm 2 mps 555 mmHg 90%
    20:00 +12°C° 0.2 mm 1 mps 555 mmHg 94%
    21:00 +12°C° 0 mm 1 mps 555 mmHg 94%
    22:00 +12°C° 0 mm 1 mps 555 mmHg 94%
    23:00 +11°C° 0 mm 1 mps 555 mmHg 94%

    Tomorrow, 18 September, Wednesday

    Time Temperature Precipitation Wind Pressure Humidity
    00:00 +11°C° 0 mm 1 mps 554 mmHg 94%
    01:00 +11°C° 0 mm 1 mps 554 mmHg 94%
    02:00 +11°C° 0 mm 1 mps 554 mmHg 93%
    03:00 +11°C° 0 mm 1 mps 554 mmHg 93%
    04:00 +11°C° 0 mm 1 mps 554 mmHg 93%
    05:00 +10°C° 0 mm 1 mps 554 mmHg 93%
    06:00 +13°C° 0 mm 1 mps 555 mmHg 86%
    07:00 +15°C° 0 mm 1 mps 556 mmHg 79%
    08:00 +17°C° 0 mm 2 mps 558 mmHg 72%
    09:00 +18°C° 0.8 mm 2 mps 558 mmHg 69%
    10:00 +19°C° 0.8 mm 2 mps 558 mmHg 66%
    11:00 +20°C° 0.8 mm 3 mps 558 mmHg 63%
    12:00 +19°C° 2.2 mm 2 mps 558 mmHg 66%
    13:00 +19°C° 2.2 mm 2 mps 557 mmHg 69%
    14:00 +19°C° 2.2 mm 2 mps 557 mmHg 71%
    15:00 +18°C° 2.2 mm 2 mps 556 mmHg 77%
    16:00 +17°C° 2.2 mm 2 mps 556 mmHg 83%
    17:00 +15°C° 2.2 mm 2 mps 555 mmHg 89%
    18:00 +15°C° 1.5 mm 2 mps 555 mmHg 90%
    19:00 +14°C° 1.5 mm 2 mps 555 mmHg 91%
    20:00 +14°C° 1.5 mm 1 mps 556 mmHg 92%
    21:00 +14°C° 0.6 mm 1 mps 556 mmHg 92%
    22:00 +13°C° 0.6 mm 1 mps 556 mmHg 91%
    23:00 +13°C° 0.6 mm 1 mps 556 mmHg 91%

    Day after tomorrow, 19 September, Thursday

    Time Temperature Precipitation Wind Pressure Humidity
    00:00 +13°C° 0 mm 1 mps 555 mmHg 91%
    01:00 +12°C° 0 mm 1 mps 554 mmHg 92%
    02:00 +11°C° 0 mm 1 mps 554 mmHg 92%
    03:00 +11°C° 0 mm 1 mps 554 mmHg 92%
    04:00 +11°C° 0 mm 1 mps 554 mmHg 92%
    05:00 +10°C° 0 mm 2 mps 554 mmHg 92%
    06:00 +13°C° 0 mm 2 mps 555 mmHg 86%
    07:00 +14°C° 0 mm 2 mps 556 mmHg 80%
    08:00 +16°C° 0 mm 2 mps 557 mmHg 75%
    09:00 +17°C° 0 mm 2 mps 557 mmHg 67%
    10:00 +19°C° 0 mm 3 mps 558 mmHg 59%
    11:00 +21°C° 0 mm 3 mps 558 mmHg 51%
    12:00 +20°C° 0.4 mm 3 mps 558 mmHg 56%
    13:00 +20°C° 0.4 mm 4 mps 557 mmHg 61%
    14:00 +19°C° 0.4 mm 4 mps 556 mmHg 66%
    15:00 +18°C° 0.8 mm 4 mps 555 mmHg 72%
    16:00 +17°C° 0.8 mm 3 mps 555 mmHg 78%
    17:00 +16°C° 0.8 mm 3 mps 554 mmHg 83%
    18:00 +13°C° 0.3 mm 3 mps 554 mmHg 87%
    19:00 +13°C° 0.3 mm 2 mps 554 mmHg 90%
    20:00 +12°C° 0.3 mm 2 mps 554 mmHg 94%
    21:00 +12°C° 0 mm 2 mps 554 mmHg 94%
    22:00 +12°C° 0 mm 2 mps 554 mmHg 94%
    23:00 +11°C° 0 mm 1 mps 554 mmHg 93%

    20 September, Friday

    Time Temperature Precipitation Wind Pressure Humidity
    00:00 +11°C° 0 mm 1 mps 554 mmHg 93%
    01:00 +11°C° 0 mm 1 mps 553 mmHg 92%
    02:00 +10°C° 0 mm 1 mps 553 mmHg 92%
    03:00 +10°C° 0 mm 1 mps 553 mmHg 91%
    04:00 +10°C° 0 mm 1 mps 553 mmHg 91%
    05:00 +10°C° 0 mm 1 mps 553 mmHg 90%
    06:00 +12°C° 0 mm 1 mps 554 mmHg 82%
    07:00 +14°C° 0 mm 1 mps 555 mmHg 74%
    08:00 +16°C° 0 mm 1 mps 557 mmHg 66%
    09:00 +18°C° 0 mm 1 mps 557 mmHg 57%
    10:00 +19°C° 0 mm 2 mps 558 mmHg 48%
    11:00 +21°C° 0 mm 2 mps 559 mmHg 39%
    12:00 +21°C° 0 mm 2 mps 558 mmHg 43%
    13:00 +21°C° 0 mm 3 mps 558 mmHg 47%
    14:00 +21°C° 0 mm 4 mps 557 mmHg 50%
    15:00 +19°C° 0.2 mm 3 mps 556 mmHg 61%
    16:00 +17°C° 0.2 mm 3 mps 556 mmHg 72%
    17:00 +16°C° 0.2 mm 3 mps 555 mmHg 83%
    18:00 +13°C° 0 mm 3 mps 555 mmHg 87%
    19:00 +13°C° 0 mm 2 mps 555 mmHg 91%
    20:00 +12°C° 0 mm 2 mps 555 mmHg 94%
    21:00 +12°C° 0 mm 2 mps 555 mmHg 94%
    22:00 +12°C° 0 mm 2 mps 555 mmHg 94%
    23:00 +11°C° 0 mm 1 mps 555 mmHg 94%

    21 September, Saturday

    Time Temperature Precipitation Wind Pressure Humidity
    00:00 +11°C° 0 mm 1 mps 555 mmHg 94%
    01:00 +11°C° 0 mm 1 mps 554 mmHg 94%
    02:00 +10°C° 0 mm 1 mps 554 mmHg 94%
    03:00 +10°C° 0 mm 1 mps 554 mmHg 93%
    04:00 +10°C° 0 mm 1 mps 554 mmHg 93%
    05:00 +8°C° 0 mm 0 mps 553 mmHg 93%
    06:00 +10°C° 0 mm 0 mps 555 mmHg 85%
    07:00 +12°C° 0 mm 0 mps 556 mmHg 77%
    08:00 +15°C° 0 mm 1 mps 558 mmHg 68%
    09:00 +18°C° 0 mm 1 mps 558 mmHg 60%
    10:00 +19°C° 0 mm 2 mps 559 mmHg 51%
    11:00 +20°C° 0 mm 3 mps 559 mmHg 42%
    12:00 +20°C° 0 mm 3 mps 559 mmHg 45%
    13:00 +21°C° 0 mm 4 mps 558 mmHg 48%
    14:00 +21°C° 0 mm 5 mps 558 mmHg 51%
    15:00 +19°C° 0 mm 4 mps 557 mmHg 61%
    16:00 +17°C° 0 mm 4 mps 556 mmHg 71%
    17:00 +14°C° 0 mm 3 mps 555 mmHg 80%
    18:00 +13°C° 0 mm 3 mps 555 mmHg 84%
    19:00 +13°C° 0 mm 2 mps 555 mmHg 89%
    20:00 +10°C° 0 mm 2 mps 555 mmHg 93%
    21:00 +11°C° 0 mm 1 mps 555 mmHg 93%
    22:00 +11°C° 0 mm 1 mps 555 mmHg 92%
    23:00 +11°C° 0 mm 1 mps 555 mmHg 92%

    22 September, Sunday

    Time Temperature Precipitation Wind Pressure Humidity
    00:00 +10°C° 0 mm 1 mps 554 mmHg 92%
    01:00 +10°C° 0 mm 1 mps 554 mmHg 91%
    02:00 +9°C° 0 mm 0 mps 554 mmHg 91%
    03:00 +9°C° 0 mm 0 mps 554 mmHg 91%
    04:00 +9°C° 0 mm 0 mps 554 mmHg 90%
    05:00 +8°C° 0 mm 0 mps 554 mmHg 90%
    06:00 +11°C° 0 mm 0 mps 555 mmHg 80%
    07:00 +13°C° 0 mm 0 mps 557 mmHg 71%
    08:00 +16°C° 0 mm 1 mps 558 mmHg 62%
    09:00 +18°C° 0 mm 1 mps 558 mmHg 56%
    10:00 +19°C° 0 mm 2 mps 559 mmHg 50%
    11:00 +21°C° 0 mm 3 mps 559 mmHg 44%
    12:00 +21°C° 0 mm 3 mps 559 mmHg 46%
    13:00 +21°C° 0 mm 4 mps 558 mmHg 48%
    14:00 +21°C° 0 mm 4 mps 558 mmHg 50%
    15:00 +19°C° 0 mm 4 mps 557 mmHg 60%
    16:00 +18°C° 0 mm 4 mps 556 mmHg 70%
    17:00 +16°C° 0 mm 3 mps 556 mmHg 80%
    18:00 +13°C° 0 mm 3 mps 555 mmHg 85%
    19:00 +13°C° 0 mm 2 mps 555 mmHg 90%
    20:00 +11°C° 0 mm 1 mps 555 mmHg 95%
    21:00 +11°C° 0 mm 1 mps 555 mmHg 93%
    22:00 +11°C° 0 mm 1 mps 554 mmHg 91%
    23:00 +10°C° 0 mm 1 mps 554 mmHg 90%
    Show more